Weather History for Superior, WI

Change the Weather History Date:

Tuesday, August 27, 2013

  Actual Average Record
Temperature  
Mean Temperature 70 °F -  
Max Temperature 76 °F 73 °F 94 °F (1984)
Min Temperature 64 °F 54 °F 35 °F (1999)
Cooling Degree Days 5    
Growing Degree Days 20 (Base 50)    
Moisture  
Dew Point 67 °F    
Average Humidity 94    
Maximum Humidity 100    
Minimum Humidity 80    
Precipitation  
Precipitation 1.28 in - - ()
Sea Level Pressure  
Sea Level Pressure 29.88 in    
Wind  
Wind Speed 6 mph (NE)    
Max Wind Speed 12 mph    
Max Gust Speed 23 mph    
Visibility 6 miles    
Events Fog , Rain    
Averages and records for this station are not official NWS values.
T = Trace of Precipitation, MM = Missing Value Source: NWS Daily Summary

Daily Weather History Graph

Daily Weather History Graph

Search for Another Location

Airport:

Trip Planner

Search our weather history database for the weather conditions in past years. The results will help you decide how hot, cold, wet, or windy it might be!

Date:

Astronomy

Aug. 27, 2013 Rise Set
Actual Time 6:22 AM CDT 7:56 PM CDT
Civil Twilight 5:50 AM CDT 8:28 PM CDT
Nautical Twilight 5:11 AM CDT 9:06 PM CDT
Astronomical Twilight 4:29 AM CDT 9:48 PM CDT
Moon 11:22 PM CDT (8/27) 1:48 PM CDT (8/27)
Length of Visible Light 14h 37m
Length of Day
13h 34m
Waning Gibbous, 57% of the Moon is Illuminated
Aug 27
Waning Gibbous
Aug 28
Last Quarter
Sep 5
New
Sep 12
First Quarter
Sep 19
Full

Hourly Weather History & Observations

Time (CDT) Temp. Dew Point Humidity Pressure Visibility Wind Dir Wind Speed Gust Speed Precip Events Conditions
12:15 AM 68.5 °F 67.5 °F 96% 29.88 in 10.0 mi East 6.9 mph - N/A   Overcast
12:35 AM 68.0 °F 67.1 °F 97% 29.87 in 10.0 mi East 8.1 mph - N/A Rain Light Rain
12:55 AM 67.3 °F 66.7 °F 98% 29.86 in 10.0 mi East 5.8 mph - N/A   Drizzle
1:15 AM 66.6 °F 66.2 °F 99% 29.85 in 5.0 mi East 8.1 mph - 0.01 in Rain Light Rain
1:35 AM 66.6 °F 66.2 °F 99% 29.88 in 5.0 mi North 11.5 mph - 0.03 in Rain Rain
1:55 AM 66.4 °F 66.0 °F 99% 29.88 in 0.8 mi SSE 10.4 mph 23.0 mph 0.83 in Rain Heavy Rain
2:15 AM 67.1 °F 66.6 °F 98% 29.86 in 2.5 mi NNE 8.1 mph 11.5 mph 0.19 in Rain Heavy Rain
2:35 AM 66.2 °F 65.8 °F 99% 29.83 in 4.0 mi NE 8.1 mph - 0.27 in Rain Light Rain
2:55 AM 66.4 °F 66.2 °F 99% 29.87 in 5.0 mi Calm Calm - 0.29 in Rain Rain
3:15 AM 66.6 °F 66.2 °F 99% 29.84 in 3.0 mi Calm Calm - 0.11 in Rain Light Rain
3:35 AM 66.7 °F 66.4 °F 99% 29.83 in 4.0 mi East 4.6 mph - 0.15 in Rain Light Rain
3:55 AM 66.7 °F 66.4 °F 99% 29.81 in 5.0 mi Calm Calm - 0.15 in   Overcast
4:15 AM 66.6 °F 66.4 °F 99% 29.82 in 3.0 mi NNE 3.5 mph - N/A   Overcast
4:35 AM 66.2 °F 66.2 °F 100% 29.82 in 4.0 mi NNE 3.5 mph - N/A   Overcast
4:55 AM 66.2 °F 66.2 °F 100% 29.83 in 3.0 mi NE 5.8 mph - N/A   Overcast
5:15 AM 66.2 °F 66.2 °F 100% 29.83 in 3.0 mi NE 8.1 mph - N/A   Overcast
5:35 AM 66.2 °F 65.8 °F 99% 29.84 in 2.0 mi ENE 6.9 mph - 0.01 in   Overcast
5:55 AM 66.0 °F 65.7 °F 99% 29.84 in 3.0 mi ENE 9.2 mph - 0.01 in   Overcast
6:15 AM 65.8 °F 65.7 °F 99% 29.84 in 7.0 mi ENE 5.8 mph - N/A   Overcast
6:35 AM 65.8 °F 65.5 °F 99% 29.85 in 7.0 mi ENE 5.8 mph - N/A   Overcast
6:55 AM 66.2 °F 65.7 °F 98% 29.86 in 4.0 mi NE 5.8 mph - N/A   Overcast
7:15 AM 66.2 °F 66.2 °F 100% 29.85 in 1.8 mi ENE 6.9 mph - N/A   Overcast
7:35 AM 66.6 °F 66.4 °F 99% 29.86 in 1.5 mi ENE 5.8 mph - N/A   Overcast
7:55 AM 67.1 °F 66.7 °F 99% 29.86 in 1.8 mi ENE 3.5 mph - N/A   Overcast
8:15 AM 67.1 °F 67.1 °F 100% 29.87 in 1.5 mi ENE 5.8 mph - N/A   Overcast
8:35 AM 67.5 °F 67.1 °F 99% 29.87 in 2.0 mi ENE 5.8 mph - N/A   Overcast
8:55 AM 68.0 °F 67.5 °F 98% 29.86 in 5.0 mi ENE 5.8 mph - N/A   Overcast
9:15 AM 68.0 °F 67.1 °F 97% 29.87 in 7.0 mi ENE 5.8 mph - N/A   Overcast
9:35 AM 68.4 °F 67.5 °F 97% 29.87 in 7.0 mi ENE 6.9 mph - N/A   Overcast
9:55 AM 68.9 °F 67.5 °F 95% 29.87 in 10.0 mi ENE 5.8 mph - N/A   Overcast
10:15 AM 70.0 °F 68.0 °F 93% 29.88 in 10.0 mi ENE 8.1 mph - N/A   Overcast
10:35 AM 69.1 °F 67.3 °F 94% 29.88 in 10.0 mi ENE 9.2 mph - N/A   Overcast
10:55 AM 69.4 °F 67.3 °F 93% 29.88 in 10.0 mi NE 6.9 mph - N/A   Overcast
11:15 AM 69.4 °F 67.1 °F 92% 29.88 in 10.0 mi ENE 8.1 mph - N/A   Overcast
11:35 AM 69.4 °F 67.1 °F 92% 29.89 in 10.0 mi NE 8.1 mph - N/A   Overcast
11:55 AM 69.3 °F 67.3 °F 93% 29.89 in 10.0 mi ENE 8.1 mph - N/A   Overcast
12:15 PM 70.3 °F 67.3 °F 90% 29.88 in 10.0 mi ENE 8.1 mph - N/A   Overcast
12:35 PM 71.8 °F 68.0 °F 88% 29.88 in 10.0 mi NE 4.6 mph - N/A   Mostly Cloudy
12:55 PM 72.7 °F 68.5 °F 87% 29.87 in 10.0 mi East 5.8 mph - N/A   Scattered Clouds
1:15 PM 73.8 °F 68.9 °F 85% 29.87 in 10.0 mi NE 5.8 mph - N/A   Clear
1:35 PM 74.7 °F 69.6 °F 84% 29.87 in 10.0 mi NE 4.6 mph - N/A   Clear
1:55 PM 74.5 °F 68.9 °F 83% 29.88 in 10.0 mi NE 8.1 mph - N/A   Clear
2:15 PM 74.3 °F 69.3 °F 84% 29.88 in 10.0 mi ENE 5.8 mph - N/A   Clear
2:35 PM 74.8 °F 69.1 °F 82% 29.87 in 10.0 mi NNE 6.9 mph - N/A   Clear
2:55 PM 74.7 °F 69.6 °F 84% 29.87 in 10.0 mi ENE 5.8 mph - N/A   Clear
3:15 PM 75.7 °F 70.0 °F 82% 29.87 in 10.0 mi NE 8.1 mph - N/A   Clear
3:35 PM 75.2 °F 69.4 °F 82% 29.87 in 10.0 mi ENE 5.8 mph - N/A   Clear
3:55 PM 75.9 °F 70.0 °F 82% 29.87 in 10.0 mi NE 4.6 mph - N/A   Clear
4:15 PM 76.1 °F 69.6 °F 80% 29.88 in 10.0 mi NE 5.8 mph - N/A   Clear
4:35 PM 75.0 °F 68.7 °F 81% 29.88 in 10.0 mi NE 6.9 mph - N/A   Clear
4:55 PM 73.8 °F 68.2 °F 83% 29.89 in 10.0 mi ENE 6.9 mph - N/A   Clear
5:15 PM 73.8 °F 68.2 °F 83% 29.89 in 10.0 mi NE 6.9 mph - N/A   Clear
5:35 PM 73.4 °F 68.0 °F 83% 29.90 in 10.0 mi NE 4.6 mph - N/A   Clear
5:55 PM 72.9 °F 67.6 °F 84% 29.89 in 10.0 mi NE 6.9 mph - N/A   Clear
6:15 PM 72.0 °F 67.5 °F 86% 29.90 in 10.0 mi NE 6.9 mph - N/A   Clear
6:35 PM 70.3 °F 66.9 °F 89% 29.90 in 10.0 mi NE 4.6 mph - N/A   Clear
6:55 PM 69.1 °F 66.6 °F 92% 29.90 in 10.0 mi NE 4.6 mph - N/A   Clear
7:15 PM 67.1 °F 66.2 °F 97% 29.91 in 7.0 mi ENE 4.6 mph - N/A   Mostly Cloudy
7:35 PM 66.6 °F 66.2 °F 99% 29.91 in 1.0 mi NE 4.6 mph - N/A   Overcast
7:55 PM 66.2 °F 65.7 °F 98% 29.92 in 0.5 mi NE 4.6 mph - N/A Fog Fog
8:15 PM 65.8 °F 65.7 °F 99% 29.92 in 0.8 mi Calm Calm - N/A   Overcast
8:35 PM 65.3 °F 65.1 °F 99% 29.93 in 0.8 mi NE 5.8 mph - N/A   Overcast
8:55 PM 64.9 °F 64.8 °F 99% 29.94 in 0.8 mi NE 3.5 mph - N/A   Overcast
9:15 PM 64.9 °F 64.8 °F 99% 29.94 in 0.5 mi Calm Calm - N/A Fog Fog
9:35 PM 65.3 °F 64.9 °F 99% 29.94 in 0.2 mi Calm Calm - N/A Fog Fog
9:55 PM 65.3 °F 65.3 °F 100% 29.94 in 0.2 mi Calm Calm - N/A Fog Fog
10:15 PM 65.3 °F 65.3 °F 100% 29.94 in 0.2 mi Calm Calm - N/A Fog Fog
10:35 PM 65.5 °F 65.5 °F 100% 29.94 in 0.2 mi Calm Calm - N/A Fog Fog
10:55 PM 65.5 °F 65.5 °F 100% 29.95 in 0.2 mi Calm Calm - N/A Fog Fog
11:15 PM 65.3 °F 65.3 °F 100% 29.95 in 0.5 mi Calm Calm - N/A Fog Fog
11:35 PM 65.3 °F 65.3 °F 100% 29.96 in 3.0 mi Calm Calm - N/A   Overcast
11:55 PM 65.5 °F 65.5 °F 100% 29.96 in 0.5 mi Calm Calm - N/A Fog Fog